ASA238 KSEA-PHKO

Flight info

Callsign ASA238
Flight time N/A
Altitude 36000
Route HAROB6 HQM SEDAR 43N131W 40N136W 37N140W HELOP A332 HALLI/N0449F380 A332 AUNTI R463 APACK/N0446F370 ONOHI VECKI9
Aircraft B38M/M-SDE1FGHILORVWXY/HB1

Departure

Time N/A
Airport Seattle–Tacoma International Airport (KSEA)

Arrival

Time 2026-04-27 21:44
Airport Ellison Onizuka Kona International Airport at Keāhole (PHKO)
Time Latitude Longitude Altitude Speed Heading
2026-04-27 20:32 26.45686 -153.35079 38099 ft 455 kts 225°
2026-04-27 20:33 26.41237 -153.40088 38100 ft 454 kts 225°
2026-04-27 20:33 26.36783 -153.45096 38097 ft 454 kts 224°
2026-04-27 20:34 26.32333 -153.50093 38101 ft 454 kts 224°
2026-04-27 20:34 26.27880 -153.55089 38104 ft 453 kts 224°
2026-04-27 20:35 26.23430 -153.60075 38097 ft 453 kts 224°
2026-04-27 20:35 26.18976 -153.65059 38099 ft 454 kts 224°
2026-04-27 20:36 26.14522 -153.70038 38103 ft 454 kts 224°
2026-04-27 20:36 26.10070 -153.75009 38101 ft 453 kts 224°
2026-04-27 20:37 26.05617 -153.79976 38099 ft 453 kts 224°
2026-04-27 20:37 26.01191 -153.84907 38098 ft 453 kts 224°
2026-04-27 20:38 25.96735 -153.89866 38102 ft 453 kts 224°
2026-04-27 20:38 25.92273 -153.94824 38102 ft 453 kts 224°
2026-04-27 20:39 25.87814 -153.99775 38101 ft 453 kts 224°
2026-04-27 20:39 25.83348 -154.04728 38099 ft 453 kts 224°
2026-04-27 20:40 25.78886 -154.09671 38100 ft 453 kts 224°
2026-04-27 20:40 25.74447 -154.14583 38100 ft 453 kts 224°
2026-04-27 20:41 25.69987 -154.19512 38098 ft 453 kts 224°
2026-04-27 20:41 25.65519 -154.24445 38100 ft 452 kts 224°
2026-04-27 20:42 25.61079 -154.29341 38101 ft 453 kts 224°
2026-04-27 20:42 25.56618 -154.34255 38099 ft 452 kts 224°
2026-04-27 20:43 25.52160 -154.39161 38106 ft 452 kts 224°
2026-04-27 20:43 25.47697 -154.44066 38102 ft 452 kts 224°
2026-04-27 20:44 25.43232 -154.48968 38099 ft 452 kts 224°
2026-04-27 20:44 25.38763 -154.53869 38100 ft 452 kts 224°
2026-04-27 20:45 25.34294 -154.58765 38102 ft 452 kts 223°
2026-04-27 20:45 25.29829 -154.63651 38101 ft 451 kts 223°
2026-04-27 20:46 25.25387 -154.68507 38099 ft 451 kts 223°
2026-04-27 20:46 25.20925 -154.73380 38101 ft 451 kts 223°
2026-04-27 20:47 25.16459 -154.78253 38099 ft 451 kts 223°
2026-04-27 20:47 25.11991 -154.83122 38098 ft 451 kts 223°
2026-04-27 20:48 25.08277 -154.87166 38099 ft 451 kts 223°
2026-04-27 20:48 25.03080 -154.92819 38101 ft 451 kts 223°
2026-04-27 20:49 24.98614 -154.97670 38101 ft 450 kts 223°
2026-04-27 20:49 24.94147 -155.02518 38100 ft 450 kts 223°
2026-04-27 20:50 24.89670 -155.07371 38102 ft 451 kts 223°
2026-04-27 20:50 24.85229 -155.12180 38102 ft 450 kts 223°
2026-04-27 20:51 24.80761 -155.17013 38099 ft 451 kts 223°
2026-04-27 20:51 24.76286 -155.21848 38099 ft 450 kts 223°
2026-04-27 20:52 24.71879 -155.26759 38088 ft 452 kts 232°
2026-04-27 20:52 24.68273 -155.32419 38077 ft 453 kts 233°
2026-04-27 20:53 24.65264 -155.37131 38106 ft 453 kts 234°
2026-04-27 20:53 24.61068 -155.43722 38103 ft 453 kts 234°
2026-04-27 20:54 24.56256 -155.51271 38110 ft 453 kts 233°
2026-04-27 20:55 24.52633 -155.56949 38109 ft 453 kts 233°
2026-04-27 20:55 24.49011 -155.62618 38176 ft 454 kts 233°
2026-04-27 20:56 24.45378 -155.68296 38199 ft 454 kts 233°
2026-04-27 20:56 24.41745 -155.73970 38200 ft 455 kts 233°
2026-04-27 20:57 24.38112 -155.79638 38192 ft 455 kts 233°
2026-04-27 20:57 24.34468 -155.85314 38194 ft 455 kts 233°
2026-04-27 20:58 24.30844 -155.90952 38191 ft 455 kts 233°
2026-04-27 20:58 24.27193 -155.96628 38194 ft 455 kts 233°
2026-04-27 20:59 24.23539 -156.02300 38195 ft 455 kts 233°
2026-04-27 20:59 24.19884 -156.07969 38192 ft 455 kts 233°
2026-04-27 21:00 24.16228 -156.13632 38187 ft 455 kts 233°
2026-04-27 21:00 24.12569 -156.19294 38105 ft 454 kts 233°
2026-04-27 21:01 24.08919 -156.24936 38090 ft 454 kts 233°
2026-04-27 21:01 24.06901 -156.27521 38064 ft 450 kts 219°
2026-04-27 21:01 24.04297 -156.29445 38088 ft 444 kts 202°
2026-04-27 21:01 24.01444 -156.30558 38088 ft 441 kts 190°
2026-04-27 21:02 23.98415 -156.30899 38073 ft 434 kts 178°
2026-04-27 21:02 23.92391 -156.30647 38073 ft 433 kts 174°
2026-04-27 21:03 23.86386 -156.30142 38081 ft 433 kts 174°
2026-04-27 21:03 23.80377 -156.29563 38079 ft 433 kts 173°
2026-04-27 21:04 23.74373 -156.28969 38090 ft 433 kts 173°
2026-04-27 21:04 23.68374 -156.28374 38082 ft 433 kts 173°
2026-04-27 21:05 23.62412 -156.27783 38089 ft 433 kts 173°
2026-04-27 21:05 23.56371 -156.27184 38078 ft 433 kts 173°
2026-04-27 21:06 23.50407 -156.26594 38082 ft 433 kts 173°
2026-04-27 21:06 23.44401 -156.26000 38088 ft 433 kts 173°
2026-04-27 21:07 23.38395 -156.25407 38082 ft 433 kts 173°
2026-04-27 21:07 23.32393 -156.24815 38082 ft 433 kts 173°
2026-04-27 21:08 23.26379 -156.24221 38082 ft 433 kts 173°
2026-04-27 21:08 23.20402 -156.23632 38082 ft 434 kts 174°
2026-04-27 21:09 23.14385 -156.23040 38080 ft 434 kts 174°
2026-04-27 21:09 23.08373 -156.22449 38079 ft 434 kts 174°
2026-04-27 21:10 23.02354 -156.21858 38082 ft 434 kts 174°
2026-04-27 21:10 22.96347 -156.21268 38083 ft 434 kts 174°
2026-04-27 21:11 22.90320 -156.20677 38081 ft 434 kts 174°
2026-04-27 21:11 22.84294 -156.20087 38081 ft 434 kts 174°
2026-04-27 21:12 22.78269 -156.19497 38083 ft 435 kts 174°
2026-04-27 21:12 22.72235 -156.18907 38080 ft 435 kts 174°
2026-04-27 21:13 22.66241 -156.18321 38082 ft 435 kts 174°
2026-04-27 21:13 22.60211 -156.17732 38082 ft 435 kts 174°
2026-04-27 21:14 22.54167 -156.17142 38085 ft 435 kts 174°
2026-04-27 21:14 22.48137 -156.16554 38082 ft 435 kts 174°
2026-04-27 21:15 22.42107 -156.15967 38082 ft 435 kts 174°
2026-04-27 21:15 22.36112 -156.15384 38086 ft 435 kts 174°
2026-04-27 21:16 22.30073 -156.14797 38080 ft 435 kts 174°
2026-04-27 21:16 22.24041 -156.14211 38087 ft 435 kts 174°
2026-04-27 21:17 22.18007 -156.13625 38089 ft 436 kts 174°
2026-04-27 21:17 22.11966 -156.13040 38080 ft 435 kts 174°
2026-04-27 21:18 22.05926 -156.12454 38083 ft 435 kts 174°
2026-04-27 21:18 22.02920 -156.12163 37932 ft 433 kts 174°
2026-04-27 21:18 21.99904 -156.11871 37083 ft 438 kts 174°
2026-04-27 21:18 21.96845 -156.11575 36246 ft 442 kts 174°
2026-04-27 21:19 21.93773 -156.11278 35538 ft 443 kts 173°
2026-04-27 21:19 21.90701 -156.10981 34881 ft 443 kts 173°
2026-04-27 21:19 21.87673 -156.10688 34180 ft 443 kts 173°
2026-04-27 21:20 21.81492 -156.10092 32670 ft 447 kts 173°
2026-04-27 21:20 21.78394 -156.09794 32069 ft 445 kts 173°
2026-04-27 21:20 21.75317 -156.09497 31556 ft 441 kts 173°
2026-04-27 21:20 21.72273 -156.09204 31032 ft 437 kts 173°
2026-04-27 21:21 21.69249 -156.08912 30469 ft 435 kts 173°
2026-04-27 21:21 21.66241 -156.08622 29899 ft 433 kts 173°
2026-04-27 21:21 21.63284 -156.08337 29359 ft 430 kts 173°
2026-04-27 21:21 21.60303 -156.08051 28813 ft 428 kts 174°
2026-04-27 21:22 21.57346 -156.07766 28275 ft 426 kts 174°
2026-04-27 21:22 21.54399 -156.07483 27729 ft 424 kts 174°
2026-04-27 21:22 21.51472 -156.07202 27198 ft 421 kts 174°
2026-04-27 21:22 21.48557 -156.06922 26662 ft 419 kts 174°
2026-04-27 21:23 21.45662 -156.06644 26141 ft 417 kts 174°
2026-04-27 21:23 21.42773 -156.06366 25612 ft 415 kts 174°
2026-04-27 21:23 21.39907 -156.06091 25101 ft 413 kts 175°
2026-04-27 21:23 21.37053 -156.05817 24581 ft 411 kts 175°
2026-04-27 21:24 21.34215 -156.05545 24092 ft 409 kts 175°
2026-04-27 21:24 21.31386 -156.05274 23590 ft 406 kts 175°
2026-04-27 21:24 21.28576 -156.05005 23103 ft 404 kts 175°
2026-04-27 21:24 21.25786 -156.04737 22625 ft 402 kts 175°
2026-04-27 21:25 21.23036 -156.04474 22172 ft 400 kts 175°
2026-04-27 21:25 21.20277 -156.04210 21722 ft 397 kts 175°
2026-04-27 21:25 21.17539 -156.03949 21321 ft 393 kts 175°
2026-04-27 21:25 21.14824 -156.03688 20901 ft 390 kts 175°
2026-04-27 21:26 21.12129 -156.03431 20440 ft 388 kts 175°
2026-04-27 21:26 21.09444 -156.03174 20003 ft 386 kts 175°
2026-04-27 21:26 21.06782 -156.02920 19575 ft 383 kts 175°
2026-04-27 21:26 21.04137 -156.02667 19149 ft 381 kts 176°
2026-04-27 21:27 21.01503 -156.02416 18727 ft 379 kts 176°
2026-04-27 21:27 20.98886 -156.02166 18307 ft 376 kts 176°
2026-04-27 21:27 20.96279 -156.01917 17854 ft 375 kts 176°
2026-04-27 21:27 20.93689 -156.01670 17429 ft 373 kts 176°
2026-04-27 21:28 20.91481 -156.01459 17080 ft 371 kts 176°
2026-04-27 21:28 20.88926 -156.01216 16678 ft 367 kts 176°
2026-04-27 21:28 20.86386 -156.01006 16237 ft 365 kts 181°
2026-04-27 21:28 20.83856 -156.01109 15820 ft 362 kts 183°
2026-04-27 21:29 20.81345 -156.01209 15447 ft 359 kts 183°
2026-04-27 21:29 20.78885 -156.01291 15068 ft 356 kts 182°
2026-04-27 21:29 20.76413 -156.01364 14672 ft 354 kts 182°
2026-04-27 21:29 20.73956 -156.01432 14282 ft 351 kts 182°
2026-04-27 21:30 20.71523 -156.01497 13889 ft 349 kts 182°
2026-04-27 21:30 20.69107 -156.01561 13505 ft 346 kts 182°
2026-04-27 21:30 20.66699 -156.01624 13124 ft 344 kts 182°
2026-04-27 21:30 20.64313 -156.01687 12742 ft 341 kts 182°
2026-04-27 21:31 20.61951 -156.01749 12353 ft 339 kts 182°
2026-04-27 21:31 20.59596 -156.01811 11966 ft 337 kts 182°
2026-04-27 21:31 20.57259 -156.01873 11599 ft 335 kts 182°
2026-04-27 21:31 20.54937 -156.01947 11180 ft 333 kts 182°
2026-04-27 21:32 20.52629 -156.02018 10853 ft 329 kts 181°
2026-04-27 21:32 20.50372 -156.02087 10715 ft 319 kts 181°
2026-04-27 21:32 20.48187 -156.02154 10602 ft 309 kts 181°
2026-04-27 21:32 20.46077 -156.02219 10477 ft 299 kts 181°
2026-04-27 21:33 20.44024 -156.02283 10324 ft 291 kts 181°
2026-04-27 21:33 20.42031 -156.02344 10187 ft 282 kts 181°
2026-04-27 21:33 20.40112 -156.02403 10018 ft 275 kts 181°
2026-04-27 21:33 20.38211 -156.02461 9748 ft 273 kts 181°
2026-04-27 21:34 20.36317 -156.02519 9431 ft 271 kts 181°
2026-04-27 21:34 20.34435 -156.02577 9129 ft 270 kts 181°
2026-04-27 21:34 20.32564 -156.02634 8836 ft 268 kts 180°
2026-04-27 21:34 20.30709 -156.02691 8559 ft 266 kts 180°
2026-04-27 21:35 20.28863 -156.02748 8271 ft 264 kts 180°
2026-04-27 21:35 20.27033 -156.02804 7978 ft 263 kts 180°
2026-04-27 21:35 20.25212 -156.02860 7696 ft 260 kts 180°
2026-04-27 21:35 20.23395 -156.02915 7425 ft 264 kts 180°
2026-04-27 21:36 20.21538 -156.02972 7131 ft 268 kts 180°
2026-04-27 21:36 20.19669 -156.03029 6839 ft 270 kts 180°
2026-04-27 21:36 20.17790 -156.03087 6544 ft 269 kts 180°
2026-04-27 21:36 20.15929 -156.03144 6258 ft 267 kts 180°
2026-04-27 21:37 20.14082 -156.03200 5963 ft 265 kts 180°
2026-04-27 21:37 20.12241 -156.03256 5660 ft 264 kts 180°
2026-04-27 21:37 20.10436 -156.03311 5374 ft 261 kts 180°
2026-04-27 21:37 20.08628 -156.03320 5078 ft 259 kts 176°
2026-04-27 21:38 20.06827 -156.03262 4772 ft 258 kts 176°
2026-04-27 21:38 20.05035 -156.03209 4519 ft 255 kts 176°
2026-04-27 21:38 20.03279 -156.03160 4361 ft 248 kts 176°
2026-04-27 21:38 20.01589 -156.03114 4283 ft 238 kts 176°
2026-04-27 21:39 19.99968 -156.03071 4133 ft 232 kts 176°
2026-04-27 21:39 19.98359 -156.03029 3967 ft 230 kts 176°
2026-04-27 21:39 19.96755 -156.02989 3829 ft 230 kts 176°
2026-04-27 21:39 19.95152 -156.02950 3749 ft 231 kts 176°
2026-04-27 21:40 19.93553 -156.02907 3620 ft 229 kts 176°
2026-04-27 21:40 19.91963 -156.02945 3383 ft 230 kts 181°
2026-04-27 21:40 19.90353 -156.03087 3050 ft 233 kts 182°
2026-04-27 21:40 19.88739 -156.03235 2759 ft 232 kts 182°
2026-04-27 21:41 19.87131 -156.03381 2434 ft 229 kts 182°
2026-04-27 21:41 19.85577 -156.03518 2098 ft 216 kts 183°
2026-04-27 21:41 19.84138 -156.03647 1794 ft 200 kts 184°
2026-04-27 21:41 19.82800 -156.03767 1524 ft 186 kts 184°
2026-04-27 21:42 19.81976 -156.03841 1415 ft 172 kts 185°
2026-04-27 21:42 19.80835 -156.03942 1174 ft 156 kts 186°
2026-04-27 21:42 19.79809 -156.04034 962 ft 145 kts 186°
2026-04-27 21:42 19.78810 -156.04125 775 ft 143 kts 187°
2026-04-27 21:43 19.77822 -156.04220 583 ft 142 kts 187°
2026-04-27 21:43 19.76835 -156.04308 397 ft 139 kts 186°
2026-04-27 21:43 19.75879 -156.04387 212 ft 137 kts 187°
2026-04-27 21:43 19.74948 -156.04471 51 ft 128 kts 186°
2026-04-27 21:44 19.74173 -156.04540 48 ft 93 kts 185°
2026-04-27 21:44 19.73679 -156.04587 46 ft 49 kts 185°
2026-04-27 21:44 19.73423 -156.04609 48 ft 38 kts 184°
2026-04-27 21:44 19.73132 -156.04634 48 ft 45 kts 185°
2026-04-27 21:45 19.72881 -156.04638 47 ft 27 kts 171°
2026-04-27 21:45 19.72708 -156.04575 48 ft 18 kts 154°
2026-04-27 21:45 19.72665 -156.04539 48 ft 11 kts 123°
2026-04-27 21:45 19.72653 -156.04452 47 ft 10 kts 81°
2026-04-27 21:46 19.72703 -156.04414 46 ft 11 kts
2026-04-27 21:46 19.72786 -156.04407 45 ft 14 kts
2026-04-27 21:46 19.72891 -156.04398 46 ft 16 kts
2026-04-27 21:46 19.73012 -156.04388 47 ft 19 kts
2026-04-27 21:47 19.73133 -156.04377 47 ft 16 kts
2026-04-27 21:47 19.73244 -156.04367 44 ft 15 kts
2026-04-27 21:47 19.73347 -156.04358 45 ft 16 kts
2026-04-27 21:47 19.73466 -156.04347 47 ft 17 kts
2026-04-27 21:48 19.73570 -156.04338 47 ft 10 kts
2026-04-27 21:48 19.73598 -156.04311 47 ft 7 kts 83°
2026-04-27 21:48 19.73596 -156.04255 47 ft 7 kts 95°
2026-04-27 21:48 19.73594 -156.04233 47 ft 1 kts 95°